This is the latest recevied weather packets stored in our database for station/object KH6DH-13. If no packets are shown the sender has not sent any weather packets the latest 10 day(s).
| Time | Temp. | Humidity | Pressure | Rain* | Wind** | Luminosity | Snow |
|---|---|---|---|---|---|---|---|
| 1777634271 | 22.78° C | - | - | 0.25 mm | 1.34 m/s, 56° | - | - |
| 1777633670 | 22.78° C | - | - | 0.25 mm | 0.45 m/s, 333° | - | - |
| 1777633069 | 22.78° C | - | - | 0.25 mm | 3.13 m/s, 69° | - | - |
| 1777632468 | 22.78° C | - | - | 0.25 mm | 1.34 m/s, 32° | - | - |
| 1777631867 | 22.78° C | - | - | 0.25 mm | 2.24 m/s, 72° | - | - |
| 1777631266 | 22.22° C | - | - | 0 mm | 0.45 m/s, 98° | - | - |
| 1777630665 | 22.78° C | - | - | 0 mm | 0.89 m/s, 163° | - | - |
| 1777630064 | 22.78° C | - | - | 0 mm | 1.34 m/s, 288° | - | - |
| 1777629463 | 22.78° C | - | - | 0 mm | 1.79 m/s, 45° | - | - |
| 1777628862 | 22.78° C | - | - | 0 mm | 2.24 m/s, 134° | - | - |
| 1777628261 | 22.78° C | - | - | 0 mm | 1.79 m/s, 73° | - | - |
| 1777627660 | 22.78° C | - | - | 0 mm | 0.45 m/s, 274° | - | - |
| 1777627059 | 22.78° C | - | - | 0 mm | 2.68 m/s, 349° | - | - |
| 1777626458 | 22.78° C | - | - | 0 mm | 1.34 m/s, 66° | - | - |
| 1777625857 | 22.78° C | - | - | 0 mm | 1.79 m/s, 304° | - | - |
| 1777625256 | 23.33° C | - | - | 0 mm | 3.13 m/s, 44° | - | - |
| 1777624655 | 23.33° C | - | - | 0 mm | 0.89 m/s, 89° | - | - |
| 1777624054 | 23.33° C | - | - | 0 mm | 0.89 m/s, 332° | - | - |
| 1777623453 | 23.33° C | - | - | 0 mm | 1.34 m/s, 48° | - | - |
| 1777622852 | 23.33° C | - | - | 0 mm | 0 m/s | - | - |
| 1777622251 | 22.78° C | - | - | 0 mm | 0.45 m/s, 77° | - | - |
| 1777621650 | 22.78° C | - | - | 0 mm | 0 m/s | - | - |
| 1777621049 | 22.78° C | - | - | 0 mm | 0.45 m/s, 66° | - | - |
| 1777620448 | 22.78° C | - | - | 0.25 mm | 1.79 m/s, 86° | - | - |
| 1777619847 | 23.33° C | - | - | 0.25 mm | 3.13 m/s, 120° | - | - |
* Rain latest hour (hover to see other rain measurements)
** Current wind speed in m/s (hover to see current wind gust speed)